Hlavní strana
METAR-TAF:

METAR-TAF

Letiště :

Pryor Field Regional Airport

Decatur, Alabama, Spojené státy americké

zeměpisná šířka: 34-39-29N, zeměpisná délka: 086-56-36W, výška: 180 m

Aktuální stav počasí

Zpráva byla vytvořena před 55 minutami, v 23:53 UTC
Severoseverovýchodní vítr 3 kt
Teplota 9°C
Vlhkost vzduchu 81%
Tlak 1024 hPa
Viditelnost: 16.1 km
Jasno

METAR: KDCU 072353Z AUTO 03003KT 10SM CLR 09/06 A3024 RMK AO2 SLP241 T00940061 10172 20094 52006 $

Čas: 18:48 (00:48 UTC)


TAF: chybějící

Stav a předpovědi počasí z více než 4 000 letišť (zprávy METAR a TAF).

Červené a žluté tečky na mapě představují dostupné meteorologické stanice.

Když kurzor umístíte na tečku, zobrazí se název stanice.

Pak kliknutím zobrazíte stav a předpověď počasí.

Chcete-li změnit mapu, kliknutím na zelené tlačítko se znaménkem +mapu přiblížíte, kliknutím na zelené tlačítko se znaménkem – mapu oddálíte a kliknutím na zelené šipky přejdete na sousední mapy.


METAR-TAF: